Location: Detroit
(42.3310°N, 83.0460°W)
Time: 00:49:45
(UTC-04:00)

A-11 Canister half - Pass Details

Date: 14 February 2023
Orbit: 1526 x 1682 km, 47.3° (Epoch: 20 March)

Event Time Altitude Azimuth Distance (km) Brightness Sun altitude
Rises 12:11:18 0° 283° (WNW) 4,714 11.4 34.1°
Reaches altitude 10° 12:18:29 10° 247° (WSW) 3,764 11.3 34.4°
Maximum altitude 12:19:45 10° 239° (WSW) 3,745 11.4 34.4°
Drops below altitude 10° 12:21:01 10° 231° (SW) 3,777 11.6 34.4°
Sets 12:28:25 0° 194° (SSW) 4,805 12.5 34.6°
